Flag for Colombia Weather past 2 weeks in Barranquilla, Colombia

Now
91 °F

Passing clouds.


Feels Like: 105 °F
Forecast: N/A
Wind: 18 mph from Northeast

Location: Barranquilla / Ernestocortissoz

Current Time: Aug 2, 2015 at 3:41:27 PM

Latest Report: Aug 2, 2015 at 3:00 PM


Visibility: N/A

Pressure: 29.74 "Hg

Humidity: 63%

Dew point: 77 °F

Location of BarranquillaLocation

Historic Weather in Barranquilla — Graph

°F

Barranquilla temperature yesterday

Maximum temperature yesterday: 97 °F (at 1:00 PM)
Minimum temperature yesterday: 79 °F (at 1:00 AM)
Average temperature yesterday: 84 °F

Past Weeks' High & Low Weather Summary

 TemperatureHumidityPressure
High97 °F (Jul 31, 12:00 PM)100% (Jul 18, 10:00 PM)29.95 "Hg (Jul 18, 10:00 PM)
Low77 °F (Jul 18, 10:00 PM)53% (Jul 25, 2:00 PM)29.71 "Hg (Jul 25, 4:00 PM)
Average84 °F81%29.83 "Hg
* Reported Jul 18 2:00 PM — Aug 2 2:00 PM, Barranquilla, Weather by CustomWeather, © 2015

Note: Actual official high and low records may vary slightly from our data, if they occured in-between our weather recording intervals... More about our weather records

Advertising

Barranquilla weather history for previous 24 hours

 ConditionsComfort  
Time TempWeatherWind HumidityBarometerVisibility
2:00 PM
Sun, Aug 2
91 °FPassing clouds.16 mph63%29.75 "HgN/A
1:00 PM91 °FPassing clouds.12 mph63%29.77 "HgN/A
12:00 PM95 °FScattered clouds.7 mph63%29.79 "HgN/A
11:00 AM93 °FPassing clouds.3 mph63%29.80 "HgN/A
10:00 AM90 °FPassing clouds.3 mph75%29.80 "HgN/A
9:00 AM86 °FSunny.3 mph79%29.81 "Hg10 mi
8:00 AM82 °FScattered clouds.3 mph89%29.81 "HgN/A
7:00 AM81 °FFog.3 mph89%29.80 "Hg4 mi
6:00 AM81 °FScattered clouds.6 mph89%29.77 "Hg5 mi
5:00 AM81 °FClear.9 mph89%29.76 "Hg10 mi
4:00 AM81 °FClear.9 mph89%29.75 "Hg10 mi
3:00 AM81 °FPassing clouds.7 mph89%29.75 "HgN/A
2:00 AM81 °FPassing clouds.6 mph89%29.76 "HgN/A
1:55 AM81 °FPassing clouds.6 mph89%29.76 "HgN/A
1:00 AM81 °FPassing clouds.7 mph89%29.77 "HgN/A
12:00 AM81 °FPassing clouds.14 mph89%29.80 "HgN/A
11:00 PM
Sat, Aug 1
82 °FPassing clouds.14 mph84%29.81 "HgN/A
10:00 PM82 °FPassing clouds.14 mph84%29.81 "HgN/A
9:00 PM82 °FPassing clouds.14 mph84%29.81 "HgN/A
8:00 PM82 °FPassing clouds.7 mph84%29.79 "HgN/A
7:00 PM84 °FPassing clouds.10 mph79%29.77 "HgN/A
6:00 PM86 °FScattered clouds.9 mph79%29.76 "HgN/A
5:00 PM86 °FScattered clouds.14 mph75%29.76 "HgN/A
4:00 PM88 °FScattered clouds.8 mph70%29.77 "HgN/A
3:00 PM90 °FScattered clouds.14 mph67%29.78 "HgN/A
Weather by CustomWeather, © 2015

See weather overviewHow to use our weather pages